Wetbulb
64.87 69.23 72.56 73.69 73.21 73.25 73.23 72.89 72.93 73.09 72.50 71.73 71.79 71.98 71.84 71.81 71.95 73.36 73.69 73.03 72.42 72.03 71.99 71.59 71.12 71.07 70.26 69.53 69.14 68.36 68.82 69.28 69.73 71.42 73.38 72.98 72.20 71.89 71.79 72.54 72.39 72.36 73.25
66.43 69.42 71.83 73.42 73.49 73.75 73.54 73.17 73.00 73.14 73.03 72.32 71.96 71.81 71.85 71.88 71.99 72.70 72.35 72.37 71.57 70.91 70.60 70.33 70.23 69.79 68.81 68.65 67.34 66.78 66.34 66.12 66.41 66.97 70.51 72.60 72.40 71.25 70.78 71.62 71.70 71.59 72.98
66.37 69.66 71.56 72.90 73.58 73.61 73.14 72.90 73.05 73.15 72.52 72.17 72.04 72.17 72.40 71.89 72.12 72.20 71.95 71.63 70.94 70.42 69.39 68.93 67.80 67.85 67.10 65.84 65.65 65.18 64.76 64.29 64.21 65.04 66.61 68.15 69.89 71.66 70.44 70.55 71.24 70.85 71.58
66.18 69.67 70.86 71.94 73.27 73.43 72.95 72.83 72.74 72.78 72.94 72.40 72.79 72.54 72.05 71.48 71.35 71.38 71.29 70.76 69.99 69.19 68.54 67.95 67.06 66.35 64.68 64.33 63.79 63.23 62.92 62.37 62.74 64.39 63.14 66.24 69.65 71.79 70.93 69.93 70.00 70.32 70.53
64.30 69.91 70.79 71.60 73.27 73.24 72.97 72.74 72.51 72.52 72.88 73.36 72.76 72.33 71.75 71.16 70.45 69.27 68.72 68.41 68.98 67.87 66.86 65.86 65.15 63.77 63.16 61.83 61.34 60.75 60.13 59.60 61.77 61.59 62.86 63.34 67.91 70.06 71.20 70.12 69.65 69.61 70.19
63.70 69.23 69.90 71.62 73.23 73.28 73.03 72.79 72.44 72.33 72.65 73.03 72.96 72.25 71.71 70.75 68.93 67.10 66.51 68.05 67.93 66.80 65.38 64.22 63.42 62.21 60.96 59.73 58.87 58.01 57.34 58.21 60.76 57.89 60.53 65.72 65.46 68.73 69.90 70.01 69.85 69.83 69.73
62.60 66.47 70.00 71.10 72.26 73.01 72.99 72.82 72.40 72.20 72.35 72.85 72.70 72.24 71.57 69.81 67.80 66.03 65.75 66.61 66.44 65.43 63.87 63.06 62.23 60.59 59.46 58.25 56.86 55.62 55.04 57.01 52.81 54.95 59.02 60.85 62.98 67.28 67.14 68.01 68.13 68.34 68.38
61.92 65.18 69.67 68.65 70.06 71.45 72.18 72.27 72.06 72.02 72.05 72.75 72.15 71.73 70.87 69.78 68.80 66.00 65.23 65.38 65.30 63.72 62.57 62.51 60.12 59.48 58.51 57.09 55.27 54.18 54.23 56.11 54.03 53.51 57.44 57.55 63.58 64.51 64.93 65.30 65.67 66.52 66.77
62.53 63.60 65.29 68.68 68.59 67.76 69.52 70.33 70.84 71.32 71.45 71.90 71.39 70.13 69.31 68.57 67.81 66.38 65.12 64.81 64.01 62.55 62.07 61.43 59.67 58.75 57.59 56.04 53.98 52.15 52.77 55.50 49.15 50.60 55.69 54.83 60.73 61.76 62.14 62.81 63.62 64.29 64.76
61.88 62.88 63.41 65.83 67.99 68.42 68.51 66.89 68.10 69.33 69.80 70.25 68.67 66.77 66.19 65.41 65.09 64.84 63.30 64.31 63.03 61.86 61.69 60.53 59.36 58.18 56.44 54.10 51.74 49.69 50.63 53.35 46.84 48.45 51.86 53.46 59.23 59.95 60.16 60.98 61.67 62.30 62.72
60.68 62.15 63.30 63.72 65.58 66.61 67.61 67.28 65.68 66.91 67.47 66.71 65.17 63.44 62.29 62.38 62.09 61.22 60.57 62.52 62.67 62.13 60.85 59.85 58.56 57.22 54.66 51.72 49.20 48.02 50.71 44.46 44.97 46.30 49.53 55.46 56.74 57.92 58.45 59.34 59.70 60.43 61.04
58.00 60.42 62.47 63.13 63.96 64.97 67.04 66.31 66.98 67.05 66.51 65.64 63.87 62.14 62.38 61.62 61.05 60.89 58.21 60.71 61.97 61.40 60.90 59.32 57.80 55.40 52.40 45.13 43.41 48.31 44.07 43.91 43.47 44.50 48.35 54.99 55.66 56.53 57.64 57.92 58.82 59.85 60.87
57.83 60.07 61.64 62.44 63.39 63.71 64.48 63.90 66.82 66.81 66.98 65.64 64.94 63.94 63.02 61.33 59.51 56.95 55.06 56.09 55.84 56.18 53.89 54.38 51.79 48.06 45.52 44.14 43.42 42.87 43.24 42.65 41.86 44.50 48.83 53.19 56.45 56.35 57.08 58.54 59.57 59.36 58.85
52.77 57.39 60.04 61.69 62.41 63.01 63.43 62.88 63.25 64.25 63.85 65.35 65.46 63.63 63.39 61.88 57.94 54.96 54.39 54.06 54.41 52.28 51.07 49.98 46.77 44.93 44.20 44.23 43.83 42.93 42.78 41.72 41.61 43.44 47.44 52.72 55.69 56.34 57.92 58.15 58.77 59.29 59.51
51.79 53.11 57.54 60.35 60.83 62.14 62.74 62.51 62.23 62.37 63.60 63.51 64.79 63.65 62.13 60.67 56.71 54.48 53.17 53.49 54.19 52.06 50.50 48.01 44.43 43.96 43.08 42.85 42.97 42.70 42.26 42.07 42.04 42.91 45.51 52.72 56.28 56.58 57.48 58.42 59.03 59.55 60.30
51.82 52.35 54.48 58.98 60.33 60.93 61.31 61.70 61.77 61.53 61.72 63.47 63.96 62.00 61.18 60.02 56.20 53.61 51.81 52.65 53.11 51.05 49.11 45.57 43.74 42.65 41.99 41.96 41.72 42.15 41.40 41.36 41.99 42.54 45.60 49.31 55.13 56.87 56.41 57.82 58.28 59.42 58.95
50.74 52.03 53.47 55.31 58.90 58.97 59.66 60.61 61.10 60.84 61.14 60.87 61.29 60.82 60.30 58.63 55.93 53.04 50.97 51.43 51.45 49.66 47.07 43.75 42.80 42.48 41.27 41.86 40.47 40.97 40.98 41.31 41.59 42.44 44.05 47.84 49.37 53.20 55.84 58.60 59.34 58.92 58.01
49.50 50.26 52.53 54.25 55.12 57.61 57.77 58.60 60.07 59.86 59.67 59.46 60.33 59.62 59.32 58.34 55.70 52.06 50.16 50.21 49.93 47.36 43.89 42.03 40.79 40.30 39.64 39.26 38.34 38.46 39.28 40.60 40.84 41.56 42.44 45.64 48.35 47.92 49.62 52.24 54.01 54.95 54.40
47.59 48.42 48.89 51.18 52.63 54.45 56.65 57.16 57.96 58.97 58.50 58.53 58.69 58.64 57.65 57.31 55.38 51.38 49.06 49.01 48.18 44.55 41.92 41.74 39.79 39.54 38.25 38.28 38.94 37.82 38.32 38.49 39.33 41.69 41.67 44.06 42.16 43.87 43.59 47.26 48.48 49.54 50.94
45.64 46.25 46.76 48.26 49.26 52.21 53.12 54.06 54.88 56.14 56.89 57.20 57.11 57.27 57.74 56.03 54.59 49.94 47.71 47.59 45.84 42.28 40.69 40.21 39.04 39.05 38.60 38.43 39.67 38.85 37.69 38.24 38.05 38.16 40.20 40.94 39.68 39.85 40.58 39.76 40.04 43.75 50.01
43.92 44.41 44.91 45.17 46.18 47.97 49.01 49.87 51.03 52.15 53.93 54.68 55.39 56.16 56.50 54.95 53.14 49.57 46.54 45.72 43.43 42.07 41.18 40.06 38.90 38.27 37.88 37.12 36.09 35.31 35.73 37.01 37.04 37.60 38.07 37.18 37.60 38.49 37.75 38.40 38.45 41.60 44.33
41.68 42.47 43.43 44.40 44.91 46.11 46.65 48.86 49.26 49.66 50.15 52.61 53.79 53.98 55.39 54.45 52.62 49.63 46.39 44.32 42.30 40.37 39.75 39.69 38.77 37.31 37.34 37.68 35.12 33.74 30.50 32.84 35.14 36.90 36.83 37.40 35.71 36.54 36.70 37.98 37.38 39.24 41.97
40.30 40.69 41.82 42.65 43.54 44.82 45.34 46.78 47.10 47.53 45.93 45.54 48.08 49.25 51.09 53.01 51.94 50.48 46.93 44.27 42.33 40.56 40.10 39.35 38.84 38.79 35.33 36.09 37.94 36.32 32.00 31.06 31.28 34.19 34.73 35.53 34.83 34.55 34.79 35.65 37.08 38.29 40.92
39.60 40.49 40.94 41.34 41.84 43.52 43.80 44.22 43.58 43.36 42.34 43.29 44.86 46.49 47.67 49.03 49.07 49.54 48.00 44.83 42.54 40.82 39.33 38.80 39.72 39.44 36.60 36.21 34.82 38.39 35.94 35.27 31.45 28.16 32.68 33.71 33.77 34.60 33.72 34.04 34.79 36.59 39.34
39.58 38.88 38.85 39.84 40.62 40.84 40.54 41.03 40.70 40.67 41.47 42.38 42.51 41.60 42.89 44.98 46.03 46.52 46.19 44.72 43.11 41.22 39.00 38.53 37.45 37.02 38.22 36.30 36.82 33.44 33.30 33.65 34.42 31.08 27.48 29.50 32.15 32.87 33.83 33.86 33.94 34.54 38.35
38.00 37.44 37.53 37.88 38.66 39.86 39.59 38.92 38.14 37.74 38.26 38.61 39.25 39.23 40.33 41.76 42.58 43.56 44.05 43.74 43.28 41.31 39.03 38.16 37.68 37.14 36.47 36.60 36.68 34.36 33.88 32.89 31.63 31.93 30.48 28.26 28.77 30.48 32.51 33.52 33.58 34.05 35.70
MSLP
1013.11 1013.60 1014.14 1014.59 1015.07 1015.47 1015.80 1016.07 1016.36 1016.69 1017.00 1017.24 1017.48 1017.67 1017.79 1017.91 1017.93 1018.03 1018.15 1018.27 1018.48 1018.60 1018.67 1018.84 1018.87 1019.00 1019.19 1019.42 1019.58 1019.62 1019.66 1019.57 1019.52 1019.37 1019.29 1019.32 1019.43 1019.45 1019.34 1019.21 1019.22 1019.28 1019.27
1012.54 1013.39 1014.04 1014.44 1014.86 1015.36 1015.81 1016.22 1016.50 1016.73 1016.98 1017.20 1017.48 1017.72 1017.97 1018.09 1018.12 1018.19 1018.37 1018.46 1018.75 1018.84 1018.97 1019.06 1019.42 1019.44 1019.58 1019.65 1019.82 1019.78 1019.84 1019.86 1019.67 1019.73 1019.68 1019.52 1019.74 1019.77 1019.76 1019.47 1019.55 1019.54 1019.50
1012.47 1013.27 1014.06 1014.34 1014.78 1015.16 1015.68 1016.10 1016.46 1016.76 1016.97 1017.20 1017.44 1017.67 1017.94 1018.12 1018.30 1018.45 1018.52 1018.63 1018.91 1019.06 1019.31 1019.43 1019.68 1019.81 1020.00 1020.12 1020.07 1019.98 1020.02 1020.16 1019.87 1019.78 1019.87 1019.81 1019.81 1019.79 1019.98 1019.95 1019.82 1019.81 1019.83
1012.13 1012.95 1013.81 1014.35 1014.71 1015.11 1015.53 1015.98 1016.34 1016.62 1016.89 1017.13 1017.38 1017.67 1017.99 1018.29 1018.51 1018.74 1018.87 1018.95 1019.19 1019.45 1019.59 1019.74 1019.95 1020.22 1020.30 1020.33 1020.33 1020.29 1020.32 1020.23 1020.08 1019.90 1019.76 1019.57 1019.67 1019.97 1020.06 1020.20 1020.21 1020.20 1020.12
1012.40 1012.88 1013.38 1014.07 1014.54 1015.03 1015.48 1015.84 1016.21 1016.51 1016.79 1017.01 1017.25 1017.56 1017.98 1018.34 1018.66 1018.99 1019.20 1019.30 1019.34 1019.55 1019.77 1020.01 1020.11 1020.33 1020.41 1020.54 1020.58 1020.63 1020.60 1020.49 1020.30 1020.22 1019.98 1020.04 1020.09 1020.24 1020.26 1020.33 1020.43 1020.48 1020.43
1012.42 1012.78 1013.52 1014.08 1014.32 1014.71 1015.27 1015.75 1016.15 1016.46 1016.70 1016.91 1017.15 1017.40 1017.79 1018.29 1018.68 1018.97 1019.11 1019.19 1019.43 1019.74 1019.93 1020.13 1020.26 1020.50 1020.59 1020.67 1020.85 1020.99 1020.85 1020.75 1020.47 1020.35 1020.35 1020.52 1020.57 1020.47 1020.48 1020.55 1020.52 1020.64 1020.67
1012.62 1012.71 1013.36 1013.91 1014.51 1014.83 1015.08 1015.45 1015.86 1016.26 1016.56 1016.79 1017.07 1017.39 1017.69 1018.06 1018.50 1018.89 1019.19 1019.30 1019.50 1019.78 1019.98 1020.17 1020.48 1020.58 1020.80 1020.85 1021.00 1021.06 1020.95 1020.90 1020.65 1020.74 1020.82 1020.98 1020.94 1020.71 1020.83 1020.85 1020.94 1020.82 1020.90
1012.50 1012.87 1013.45 1014.00 1014.36 1014.75 1015.11 1015.46 1015.73 1016.00 1016.34 1016.59 1016.84 1017.21 1017.57 1017.93 1018.15 1018.62 1019.25 1019.42 1019.61 1019.84 1020.05 1020.25 1020.50 1020.66 1020.87 1021.06 1021.24 1021.28 1021.12 1021.03 1020.90 1020.93 1021.09 1021.34 1021.25 1021.17 1021.06 1021.13 1021.18 1021.06 1021.19
1012.23 1012.76 1013.23 1013.82 1014.32 1014.62 1014.88 1015.18 1015.56 1015.88 1016.13 1016.40 1016.70 1017.06 1017.46 1017.76 1017.95 1018.41 1019.09 1019.32 1019.57 1019.82 1020.02 1020.28 1020.59 1020.76 1021.04 1021.16 1021.35 1021.39 1021.24 1021.18 1021.14 1021.27 1021.36 1021.69 1021.60 1021.36 1021.31 1021.24 1021.31 1021.29 1021.32
1012.34 1012.78 1013.10 1013.43 1013.84 1014.27 1014.62 1014.88 1015.21 1015.60 1015.89 1016.23 1016.53 1016.91 1017.30 1017.65 1017.87 1018.31 1018.97 1019.21 1019.41 1019.67 1019.99 1020.38 1020.71 1021.01 1021.21 1021.40 1021.54 1021.47 1021.40 1021.45 1021.38 1021.48 1021.71 1021.99 1021.67 1021.63 1021.60 1021.49 1021.46 1021.41 1021.53
1012.35 1012.42 1012.61 1012.98 1013.35 1013.78 1014.20 1014.55 1015.01 1015.33 1015.70 1016.10 1016.50 1016.90 1017.24 1017.54 1017.82 1018.36 1018.84 1019.16 1019.34 1019.59 1019.95 1020.38 1020.73 1021.08 1021.43 1021.65 1021.62 1021.50 1021.45 1021.55 1021.61 1021.83 1022.07 1022.14 1021.91 1021.74 1021.75 1021.49 1021.61 1021.59 1021.53
1012.17 1012.12 1012.17 1012.52 1012.71 1013.15 1013.52 1014.02 1014.65 1015.06 1015.42 1015.84 1016.32 1016.81 1017.16 1017.43 1017.82 1018.27 1018.76 1019.13 1019.38 1019.65 1019.98 1020.38 1020.78 1021.20 1021.48 1021.74 1021.75 1021.70 1021.77 1021.65 1021.83 1022.03 1022.33 1022.24 1022.04 1021.80 1021.74 1021.75 1021.70 1021.70 1021.69
1011.18 1011.40 1011.83 1012.36 1012.59 1012.89 1013.23 1013.69 1014.27 1014.73 1015.10 1015.50 1015.80 1016.33 1016.77 1017.16 1017.54 1018.07 1018.77 1019.20 1019.53 1019.74 1020.20 1020.58 1021.05 1021.36 1021.54 1021.54 1021.57 1021.65 1021.71 1021.84 1022.07 1022.17 1022.30 1022.43 1022.14 1021.78 1021.77 1021.66 1021.74 1021.94 1022.00
1010.57 1010.92 1011.14 1011.65 1012.34 1012.62 1012.94 1013.27 1013.76 1014.24 1014.74 1015.16 1015.52 1015.85 1016.24 1016.82 1017.53 1017.87 1018.47 1018.98 1019.47 1019.87 1020.31 1020.70 1021.24 1021.50 1021.42 1021.44 1021.62 1021.84 1021.91 1022.09 1022.24 1022.33 1022.53 1022.51 1022.31 1021.95 1021.69 1021.70 1021.78 1021.92 1022.00
1010.03 1010.29 1010.50 1010.99 1011.41 1012.08 1012.73 1012.92 1013.27 1013.72 1014.18 1014.65 1015.08 1015.40 1015.78 1016.40 1017.27 1017.73 1018.26 1018.76 1019.19 1019.58 1019.98 1020.60 1021.07 1021.31 1021.48 1021.58 1021.74 1021.95 1022.07 1022.19 1022.32 1022.48 1022.70 1022.64 1022.39 1022.01 1021.82 1021.74 1021.76 1021.86 1021.90
1009.50 1009.74 1010.03 1010.56 1011.03 1011.55 1012.14 1012.64 1012.94 1013.24 1013.59 1014.08 1014.58 1014.85 1015.26 1015.97 1016.82 1017.52 1018.08 1018.48 1018.81 1019.24 1019.82 1020.28 1020.78 1021.27 1021.58 1021.71 1021.87 1021.96 1022.08 1022.16 1022.28 1022.41 1022.57 1022.72 1022.57 1022.30 1021.97 1021.90 1021.90 1021.86 1022.15
1009.14 1009.17 1009.62 1010.14 1010.69 1011.28 1011.85 1012.33 1012.68 1012.97 1013.26 1013.66 1014.00 1014.36 1014.94 1015.61 1016.40 1017.21 1017.90 1018.29 1018.62 1019.09 1019.69 1020.30 1020.82 1021.22 1021.62 1021.73 1021.91 1022.00 1022.08 1022.09 1022.16 1022.25 1022.27 1022.44 1022.62 1022.58 1022.47 1022.19 1022.04 1022.06 1022.34
1010.03 1009.87 1009.54 1009.81 1010.51 1011.19 1011.81 1012.29 1012.64 1012.91 1013.20 1013.55 1013.89 1014.27 1014.76 1015.38 1015.94 1016.73 1017.54 1018.06 1018.38 1018.86 1019.43 1020.15 1020.84 1021.33 1021.60 1021.78 1022.10 1022.28 1022.32 1022.31 1022.40 1022.45 1022.39 1022.38 1022.41 1022.62 1022.84 1022.96 1022.82 1022.75 1022.77
1011.66 1011.10 1010.59 1010.25 1010.33 1010.90 1011.58 1012.14 1012.51 1012.78 1013.15 1013.48 1013.91 1014.30 1014.74 1015.27 1015.84 1016.51 1017.18 1017.67 1018.04 1018.66 1019.24 1019.88 1020.57 1020.97 1021.51 1021.80 1022.02 1022.28 1022.47 1022.67 1022.63 1022.47 1022.51 1022.62 1022.66 1022.91 1023.18 1023.15 1023.11 1023.17 1023.06
1012.92 1012.26 1011.69 1011.38 1011.11 1011.04 1011.53 1012.21 1012.69 1012.92 1013.19 1013.34 1013.83 1014.28 1014.64 1015.31 1015.84 1016.32 1017.00 1017.50 1017.90 1018.60 1019.17 1019.60 1020.02 1020.58 1020.89 1021.20 1021.55 1022.09 1022.43 1022.68 1022.71 1022.77 1022.75 1022.86 1023.03 1023.14 1023.27 1023.41 1023.40 1023.32 1023.18
1014.52 1013.63 1013.16 1012.59 1012.21 1011.84 1012.22 1012.74 1013.10 1013.34 1013.56 1013.71 1013.86 1014.15 1014.56 1015.06 1015.67 1016.34 1016.85 1017.31 1017.79 1018.35 1018.72 1019.16 1019.72 1020.22 1020.74 1021.07 1022.24 1022.86 1022.80 1022.61 1022.62 1022.78 1022.91 1023.13 1023.14 1023.22 1023.47 1023.61 1023.64 1023.46 1023.41
1015.31 1015.09 1014.57 1013.93 1013.52 1013.09 1013.03 1013.18 1013.28 1013.51 1013.63 1013.78 1013.83 1014.18 1014.49 1015.00 1015.55 1016.20 1016.80 1017.39 1017.86 1018.35 1018.70 1018.94 1019.22 1020.07 1020.48 1020.58 1021.33 1022.46 1023.12 1023.22 1022.79 1022.54 1022.58 1022.94 1023.23 1023.47 1023.55 1023.57 1023.70 1023.70 1023.71
1016.09 1015.77 1015.54 1015.33 1014.89 1014.53 1014.28 1013.85 1013.67 1013.68 1014.13 1014.51 1014.67 1014.75 1014.89 1014.97 1015.57 1016.16 1016.63 1017.03 1017.57 1018.05 1018.55 1018.85 1018.93 1019.04 1019.67 1020.11 1019.81 1020.38 1021.96 1022.35 1022.88 1022.94 1022.88 1022.81 1023.03 1023.33 1023.44 1023.51 1023.56 1023.61 1023.80
1017.25 1017.05 1016.77 1016.68 1016.22 1015.70 1015.25 1015.27 1015.42 1015.17 1015.24 1015.25 1014.95 1015.06 1015.43 1015.50 1015.66 1015.78 1016.30 1016.79 1017.21 1017.63 1017.95 1018.12 1018.47 1018.75 1019.16 1019.56 1020.07 1019.55 1019.68 1019.90 1021.19 1022.73 1022.78 1022.81 1022.89 1023.01 1023.20 1023.37 1023.53 1023.61 1023.75
1018.45 1017.94 1017.57 1017.50 1017.82 1017.76 1017.09 1016.50 1016.54 1016.14 1015.80 1015.60 1015.69 1015.77 1015.74 1015.73 1016.04 1016.51 1016.62 1016.71 1017.01 1017.29 1017.70 1018.00 1018.10 1018.31 1018.46 1018.78 1018.87 1019.33 1019.85 1020.02 1019.93 1020.78 1021.85 1021.94 1022.28 1022.21 1022.80 1023.13 1023.34 1023.53 1023.67
1018.86 1018.94 1018.92 1018.64 1017.98 1018.31 1018.49 1018.31 1018.20 1017.79 1016.34 1016.14 1016.44 1016.62 1016.45 1016.10 1016.05 1016.22 1016.63 1016.92 1016.94 1017.13 1017.08 1017.42 1017.78 1017.91 1017.88 1017.95 1018.24 1018.44 1018.45 1019.27 1019.62 1019.73 1020.73 1021.40 1021.20 1021.34 1021.21 1021.67 1022.37 1022.93 1023.25
Wind_Speed
6 13 16 15 16 13 12 12 11 11 11 11 11 10 10 8 7 8 11 12 11 10 11 10 9 10 9 9 10 9 9 9 8 9 12 13 12 11 13 12 12 9 12
9 13 15 15 16 14 13 12 11 10 11 13 12 11 10 9 9 9 10 11 9 9 9 9 9 8 7 9 8 9 9 8 7 7 5 12 10 11 12 12 10 9 12
10 13 12 14 15 15 14 13 12 11 11 11 11 11 11 10 9 8 9 11 10 10 7 8 6 6 6 5 7 7 8 7 6 6 6 3 6 11 10 10 10 11 11
10 14 12 11 14 14 15 14 13 11 11 11 13 12 11 10 9 9 7 10 11 8 8 8 8 7 6 6 7 7 7 6 6 8 5 4 8 9 9 9 10 9 11
7 13 13 14 16 15 14 15 14 12 12 13 15 14 13 12 11 8 7 4 9 8 7 7 7 7 7 7 7 7 6 6 6 8 6 6 4 8 9 7 9 10 10
8 10 12 17 16 17 16 15 14 13 11 11 12 14 14 14 12 8 5 5 6 8 7 7 7 7 7 8 7 6 6 6 8 5 5 9 6 8 11 9 8 8 8
7 6 13 18 14 15 16 17 15 14 13 11 14 14 14 13 14 9 6 7 6 7 6 7 7 8 7 8 7 6 6 8 6 5 6 7 6 9 6 7 7 9 9
8 7 9 11 12 13 14 14 14 14 14 12 15 14 13 13 10 10 6 8 8 6 7 8 7 8 8 7 6 5 5 6 3 4 6 6 7 6 5 5 5 7 6
7 8 7 9 9 9 11 13 12 13 13 14 15 14 12 11 11 11 8 9 8 7 7 7 7 7 7 7 6 5 5 8 6 3 7 4 6 4 4 3 3 4 5
5 8 7 8 10 9 8 11 12 12 12 12 13 13 12 10 11 10 9 8 9 9 9 9 8 7 6 6 4 3 5 8 4 4 5 4 6 4 3 3 3 3 3
4 7 8 8 10 10 9 9 11 13 12 11 11 11 9 5 7 9 8 9 9 10 10 9 9 8 8 5 2 1 4 2 4 4 3 7 5 3 2 4 2 2 3
9 8 8 8 8 9 9 8 9 7 6 6 7 7 5 6 6 7 7 9 9 10 10 10 9 8 7 3 3 2 1 2 3 4 3 6 3 2 2 2 2 3 5
12 9 9 7 7 7 7 4 5 5 6 5 8 9 6 5 5 5 4 4 4 7 4 5 5 3 5 3 2 3 3 2 2 3 4 5 6 1 1 3 4 3 2
8 10 10 10 7 7 4 4 5 5 5 6 7 7 8 5 4 5 4 5 5 4 5 5 4 4 3 3 4 4 3 3 2 3 3 5 6 2 3 4 4 5 5
8 7 10 12 10 8 7 5 5 5 7 9 7 7 6 6 5 5 5 5 4 5 5 5 5 4 4 4 3 4 4 4 3 2 2 5 7 1 4 4 5 6 6
9 9 7 10 11 8 7 8 6 4 5 8 9 6 8 6 5 5 5 5 5 6 5 5 5 5 4 4 4 4 4 4 4 2 3 3 10 11 2 3 3 6 6
6 8 8 6 8 8 8 7 5 5 5 5 5 7 8 7 7 7 5 5 5 5 7 5 4 4 4 3 4 3 3 3 3 3 2 4 5 12 14 7 7 8 6
14 8 5 6 7 8 6 5 4 3 4 3 4 4 7 7 8 7 5 5 5 5 5 5 4 4 4 4 3 3 3 2 2 2 1 1 4 4 9 11 11 10 4
16 14 11 3 6 6 6 4 5 5 3 4 3 4 7 7 7 6 5 5 6 5 5 6 3 5 4 4 4 3 3 3 2 2 3 3 4 4 3 6 7 7 4
15 15 14 11 8 3 3 1 0 2 3 3 3 3 7 6 7 6 5 6 6 6 5 5 6 4 4 5 5 4 3 3 2 2 2 3 1 2 4 4 2 2 4
15 14 13 12 10 5 4 2 1 1 1 1 2 3 5 6 7 6 4 6 5 8 8 8 5 7 4 5 5 3 2 2 3 3 3 3 3 3 3 2 0 1 0
12 13 15 15 14 8 4 3 3 2 2 0 2 2 2 5 6 5 5 5 6 5 6 8 6 4 3 7 5 4 2 3 3 4 4 4 6 3 3 4 3 3 2
15 14 14 15 14 12 11 5 4 4 4 4 4 2 1 4 4 5 6 6 7 5 6 6 8 11 5 6 7 7 4 6 3 2 4 4 6 4 4 5 5 5 5
11 10 13 14 14 11 12 8 7 4 3 2 1 2 2 1 2 5 6 6 6 5 6 7 7 9 5 9 1 6 1 4 5 3 2 4 5 6 6 4 5 5 5
9 10 8 10 13 13 11 9 6 6 4 4 4 5 5 2 2 4 4 5 6 5 5 7 6 7 6 6 8 3 1 1 1 4 4 5 4 5 5 5 5 5 5
8 8 11 12 13 13 12 11 10 8 6 5 6 4 4 1 2 4 5 5 5 5 6 6 7 8 7 5 6 4 5 6 5 4 3 2 4 5 5 7 7 6 5
Wind_Direction
168 142 152 160 160 160 149 143 138 139 141 139 137 134 130 131 121 106 112 104 93 91 88 82 78 80 70 64 53 55 58 60 52 34 87 79 73 63 56 52 64 61 58
133 144 156 163 163 161 157 153 152 155 156 151 148 144 142 130 139 131 118 109 105 92 87 82 76 74 75 63 58 54 47 41 38 12 38 95 81 70 62 62 63 63 58
128 144 162 165 163 160 157 158 160 166 160 161 160 161 146 133 124 118 120 116 107 100 95 98 95 97 88 76 63 64 57 29 13 341 304 237 90 93 75 69 70 69 65
140 147 167 167 166 160 159 160 160 166 172 173 159 149 142 136 130 120 109 116 115 113 111 110 108 104 92 73 61 52 43 30 356 331 313 35 99 88 94 80 70 67 71
154 149 169 164 166 164 166 163 168 174 180 175 169 163 158 151 130 121 110 105 126 120 118 117 110 100 84 71 56 41 29 5 337 325 41 24 53 71 69 93 88 67 69
160 152 157 168 172 169 171 169 174 178 187 189 172 167 159 154 139 129 124 156 130 128 129 122 110 97 82 71 62 47 28 354 332 22 24 69 49 65 53 61 84 88 88
160 165 154 166 181 179 175 177 178 182 188 195 172 169 165 159 150 124 170 171 158 140 133 126 114 100 89 77 66 53 39 356 42 39 49 51 37 63 67 69 67 74 67
161 161 153 167 170 183 185 187 185 184 189 195 172 170 166 172 155 143 177 169 160 152 150 129 118 111 103 94 79 58 33 11 70 60 75 64 31 64 68 68 68 77 87
170 159 157 169 187 187 188 187 190 191 192 188 177 168 166 168 151 147 185 175 167 165 153 136 131 122 115 102 88 61 28 13 73 38 75 52 10 56 50 61 72 83 88
200 162 187 169 181 191 198 197 190 194 194 194 173 166 165 164 147 156 172 178 177 172 158 151 145 136 121 112 103 61 7 354 56 54 68 33 16 47 44 52 59 86 97
215 191 182 194 182 191 194 192 197 196 190 177 170 169 158 155 152 150 169 177 186 171 163 156 154 144 129 118 106 11 6 31 61 53 68 24 7 29 44 56 58 84 98
212 219 191 194 193 184 194 176 182 180 181 174 170 164 171 161 156 162 168 176 177 155 162 165 157 143 156 163 187 229 106 69 71 77 69 24 358 26 43 45 76 93 90
204 195 197 198 199 192 197 168 179 180 180 185 182 169 181 161 162 154 138 153 144 143 146 149 134 169 220 161 143 105 104 72 97 79 73 32 1 42 139 130 100 92 104
225 201 187 191 193 201 186 190 167 175 188 205 195 178 179 162 170 157 145 161 152 158 161 150 164 209 141 96 107 99 78 64 68 91 80 45 3 296 131 131 135 131 126
222 229 193 183 185 187 196 193 187 179 182 201 214 192 170 163 160 151 157 160 166 159 162 160 163 159 156 147 134 128 106 89 73 75 102 53 19 321 154 139 143 132 127
224 214 216 183 189 181 194 196 192 191 183 183 204 188 167 159 151 160 171 173 169 157 160 151 158 167 169 154 149 139 132 126 111 113 132 86 52 36 92 121 139 142 105
247 201 193 199 175 186 196 196 206 190 194 183 183 175 163 157 157 161 170 174 166 153 147 144 156 154 147 156 152 140 125 120 124 121 121 151 92 55 43 56 99 107 116
14 353 189 172 174 182 198 193 188 213 192 196 180 166 163 165 160 163 166 176 165 146 146 147 156 155 161 159 150 167 135 121 117 142 188 113 128 108 72 62 59 64 44
13 7 7 346 179 178 181 184 187 191 194 184 180 165 164 170 172 157 166 173 161 152 151 155 160 153 162 164 159 150 149 144 174 173 196 93 80 91 105 78 76 56 47
12 11 11 6 5 136 120 120 339 160 190 166 182 171 165 168 179 159 167 172 159 152 161 166 164 176 161 164 142 134 152 166 181 170 163 106 97 92 124 135 113 69 41
14 19 12 8 358 33 53 99 70 176 172 140 145 179 171 163 173 175 171 171 162 173 179 177 161 167 165 145 91 36 1 175 193 194 172 166 167 177 137 130 152 117 167
26 25 21 19 14 12 27 18 64 44 28 88 148 147 176 163 167 173 172 178 171 160 180 181 166 152 151 169 143 128 175 316 272 212 180 179 185 185 173 182 197 206 107
25 27 27 21 15 13 0 12 21 44 36 20 17 29 18 114 150 178 191 185 177 171 191 194 186 177 163 204 187 149 144 210 136 264 220 194 177 177 189 194 184 207 151
31 26 31 22 16 17 15 19 21 32 48 5 256 112 63 25 241 191 197 207 196 188 192 193 192 195 155 189 257 243 359 148 159 166 239 212 197 194 191 188 187 205 162
26 26 37 41 29 10 9 19 16 23 25 5 20 37 358 30 299 302 299 231 219 197 209 201 196 199 203 181 196 140 125 230 239 137 180 207 209 188 189 182 186 198 182
30 30 22 26 34 24 18 11 10 4 28 37 14 9 332 271 231 225 259 272 257 234 206 206 211 207 204 207 202 200 174 168 198 169 135 175 190 223 176 176 181 188 190